When you browse on this site, cookies collect data to enhance your experience and personalize the content and advertising you see.
Visit our Privacy Policy to learn more. By continuing to use the site, you agree to this use of cookies and data.
  • In Hungary
  • List of Countries
  • For 7 days
  • Water Temperature
  • Weather Map
  • News
  • Weather Widgets
  • user-avatar
    Login

    Hourly Weather Shapy

    Today, 14 October, Monday

    Time Temperature Precipitation Wind Pressure Humidity
    00:00 +8°C° 0 mm 2 mps 747 mmHg 97%
    01:00 +9°C° 0 mm 1 mps 747 mmHg 97%
    02:00 +8°C° 0 mm 1 mps 747 mmHg 98%
    03:00 +8°C° 0 mm 1 mps 747 mmHg 98%
    04:00 +8°C° 0 mm 1 mps 747 mmHg 98%
    05:00 +7°C° 0 mm 2 mps 746 mmHg 98%
    06:00 +8°C° 0 mm 2 mps 746 mmHg 96%
    07:00 +8°C° 0 mm 2 mps 746 mmHg 95%
    08:00 +9°C° 0 mm 3 mps 746 mmHg 93%
    09:00 +11°C° 0 mm 4 mps 745 mmHg 92%
    10:00 +12°C° 0 mm 5 mps 744 mmHg 91%
    11:00 +13°C° 0 mm 6 mps 744 mmHg 90%
    12:00 +15°C° 0 mm 6 mps 743 mmHg 84%
    13:00 +16°C° 0 mm 6 mps 743 mmHg 78%
    14:00 +17°C° 0 mm 6 mps 742 mmHg 73%
    15:00 +17°C° 0 mm 5 mps 742 mmHg 75%
    16:00 +16°C° 0 mm 5 mps 742 mmHg 78%
    17:00 +15°C° 0 mm 5 mps 742 mmHg 81%
    18:00 +15°C° 0 mm 5 mps 742 mmHg 82%
    19:00 +15°C° 0 mm 5 mps 742 mmHg 84%
    20:00 +14°C° 0 mm 4 mps 742 mmHg 86%
    21:00 +14°C° 0 mm 4 mps 742 mmHg 87%
    22:00 +14°C° 0 mm 5 mps 742 mmHg 89%
    23:00 +13°C° 0 mm 5 mps 743 mmHg 91%

    Tomorrow, 15 October, Tuesday

    Time Temperature Precipitation Wind Pressure Humidity
    00:00 +12°C° 0 mm 4 mps 743 mmHg 89%
    01:00 +11°C° 0 mm 4 mps 744 mmHg 87%
    02:00 +10°C° 0 mm 4 mps 744 mmHg 84%
    03:00 +10°C° 0 mm 3 mps 744 mmHg 87%
    04:00 +9°C° 0 mm 3 mps 745 mmHg 89%
    05:00 +9°C° 0 mm 2 mps 745 mmHg 91%
    06:00 +9°C° 0 mm 2 mps 746 mmHg 91%
    07:00 +9°C° 0 mm 2 mps 747 mmHg 90%
    08:00 +10°C° 0 mm 2 mps 747 mmHg 90%
    09:00 +10°C° 0 mm 2 mps 748 mmHg 86%
    10:00 +12°C° 0 mm 2 mps 748 mmHg 82%
    11:00 +13°C° 0 mm 2 mps 749 mmHg 79%
    12:00 +12°C° 0 mm 2 mps 749 mmHg 78%
    13:00 +12°C° 0 mm 2 mps 750 mmHg 77%
    14:00 +12°C° 0 mm 2 mps 750 mmHg 76%
    15:00 +10°C° 0 mm 2 mps 750 mmHg 79%
    16:00 +10°C° 0 mm 2 mps 750 mmHg 82%
    17:00 +9°C° 0 mm 2 mps 750 mmHg 85%
    18:00 +8°C° 0 mm 2 mps 750 mmHg 87%
    19:00 +8°C° 0 mm 2 mps 751 mmHg 88%
    20:00 +7°C° 0 mm 2 mps 751 mmHg 89%
    21:00 +7°C° 0 mm 2 mps 751 mmHg 90%
    22:00 +7°C° 0 mm 2 mps 751 mmHg 90%
    23:00 +7°C° 0 mm 2 mps 751 mmHg 91%

    Day after tomorrow, 16 October, Wednesday

    Time Temperature Precipitation Wind Pressure Humidity
    00:00 +7°C° 0 mm 2 mps 751 mmHg 91%
    01:00 +7°C° 0 mm 3 mps 751 mmHg 91%
    02:00 +5°C° 0 mm 3 mps 751 mmHg 91%
    03:00 +7°C° 0 mm 3 mps 751 mmHg 91%
    04:00 +7°C° 0 mm 3 mps 751 mmHg 91%
    05:00 +7°C° 0 mm 3 mps 750 mmHg 92%
    06:00 +6°C° 0 mm 4 mps 750 mmHg 91%
    07:00 +6°C° 0 mm 4 mps 750 mmHg 90%
    08:00 +7°C° 0 mm 4 mps 750 mmHg 89%
    09:00 +8°C° 0 mm 5 mps 749 mmHg 85%
    10:00 +9°C° 0 mm 5 mps 749 mmHg 81%
    11:00 +12°C° 0 mm 5 mps 748 mmHg 78%
    12:00 +12°C° 0 mm 5 mps 748 mmHg 77%
    13:00 +13°C° 0 mm 5 mps 747 mmHg 75%
    14:00 +14°C° 0 mm 5 mps 747 mmHg 74%
    15:00 +14°C° 0 mm 5 mps 746 mmHg 77%
    16:00 +13°C° 0 mm 5 mps 746 mmHg 81%
    17:00 +13°C° 0 mm 5 mps 745 mmHg 85%
    18:00 +13°C° 0 mm 5 mps 745 mmHg 85%
    19:00 +13°C° 0 mm 5 mps 745 mmHg 85%
    20:00 +13°C° 0 mm 5 mps 745 mmHg 86%
    21:00 +13°C° 0 mm 5 mps 745 mmHg 83%
    22:00 +12°C° 0 mm 4 mps 744 mmHg 80%
    23:00 +12°C° 0 mm 4 mps 744 mmHg 77%

    17 October, Thursday

    Time Temperature Precipitation Wind Pressure Humidity
    00:00 +12°C° 0 mm 4 mps 744 mmHg 80%
    01:00 +11°C° 0 mm 3 mps 744 mmHg 83%
    02:00 +11°C° 0 mm 3 mps 744 mmHg 85%
    03:00 +11°C° 0 mm 3 mps 744 mmHg 89%
    04:00 +11°C° 0 mm 3 mps 744 mmHg 92%
    05:00 +11°C° 0 mm 3 mps 744 mmHg 96%
    06:00 +11°C° 0 mm 3 mps 744 mmHg 95%
    07:00 +11°C° 0 mm 3 mps 744 mmHg 94%
    08:00 +11°C° 0 mm 3 mps 745 mmHg 93%
    09:00 +12°C° 0 mm 3 mps 745 mmHg 87%
    10:00 +13°C° 0 mm 3 mps 745 mmHg 80%
    11:00 +14°C° 0 mm 3 mps 745 mmHg 74%
    12:00 +14°C° 0 mm 3 mps 745 mmHg 70%
    13:00 +14°C° 0 mm 3 mps 745 mmHg 66%
    14:00 +16°C° 0 mm 3 mps 745 mmHg 63%
    15:00 +13°C° 0 mm 3 mps 745 mmHg 69%
    16:00 +13°C° 0 mm 2 mps 745 mmHg 74%
    17:00 +12°C° 0 mm 1 mps 745 mmHg 80%
    18:00 +12°C° 0.1 mm 1 mps 745 mmHg 82%
    19:00 +12°C° 0.1 mm 2 mps 745 mmHg 84%
    20:00 +12°C° 0.1 mm 2 mps 745 mmHg 85%
    21:00 +11°C° 0.1 mm 1 mps 745 mmHg 88%
    22:00 +11°C° 0.1 mm 1 mps 746 mmHg 91%
    23:00 +11°C° 0.1 mm 1 mps 746 mmHg 94%

    18 October, Friday

    Time Temperature Precipitation Wind Pressure Humidity
    00:00 +11°C° 0 mm 1 mps 746 mmHg 94%
    01:00 +11°C° 0 mm 1 mps 746 mmHg 95%
    02:00 +10°C° 0 mm 0 mps 747 mmHg 95%
    03:00 +9°C° 0 mm 0 mps 747 mmHg 95%
    04:00 +9°C° 0 mm 0 mps 747 mmHg 95%
    05:00 +9°C° 0 mm 0 mps 747 mmHg 95%
    06:00 +10°C° 0 mm 1 mps 748 mmHg 94%
    07:00 +11°C° 0 mm 1 mps 748 mmHg 94%
    08:00 +11°C° 0 mm 1 mps 749 mmHg 93%
    09:00 +10°C° 0.1 mm 2 mps 749 mmHg 92%
    10:00 +10°C° 0.1 mm 2 mps 749 mmHg 91%
    11:00 +10°C° 0.1 mm 2 mps 750 mmHg 90%
    12:00 +10°C° 0.1 mm 2 mps 750 mmHg 90%
    13:00 +10°C° 0.1 mm 2 mps 750 mmHg 90%
    14:00 +10°C° 0.1 mm 2 mps 750 mmHg 90%
    15:00 +10°C° 0.1 mm 2 mps 750 mmHg 91%
    16:00 +9°C° 0.1 mm 2 mps 750 mmHg 92%
    17:00 +9°C° 0.1 mm 2 mps 751 mmHg 93%
    18:00 +9°C° 0.1 mm 2 mps 751 mmHg 93%
    19:00 +9°C° 0.1 mm 2 mps 751 mmHg 94%
    20:00 +9°C° 0.1 mm 2 mps 751 mmHg 94%
    21:00 +9°C° 0 mm 2 mps 751 mmHg 94%
    22:00 +8°C° 0 mm 2 mps 751 mmHg 94%
    23:00 +9°C° 0 mm 1 mps 751 mmHg 94%

    19 October, Saturday

    Time Temperature Precipitation Wind Pressure Humidity
    00:00 +9°C° 0 mm 1 mps 751 mmHg 94%
    01:00 +9°C° 0 mm 1 mps 751 mmHg 94%
    02:00 +9°C° 0 mm 1 mps 751 mmHg 94%
    03:00 +9°C° 0 mm 1 mps 752 mmHg 94%
    04:00 +8°C° 0 mm 0 mps 752 mmHg 94%
    05:00 +8°C° 0 mm 0 mps 752 mmHg 94%
    06:00 +8°C° 0 mm 0 mps 752 mmHg 93%
    07:00 +9°C° 0 mm 0 mps 752 mmHg 92%
    08:00 +9°C° 0 mm 0 mps 752 mmHg 91%
    09:00 +9°C° 0 mm 0 mps 752 mmHg 88%
    10:00 +10°C° 0 mm 0 mps 752 mmHg 85%
    11:00 +10°C° 0 mm 0 mps 752 mmHg 82%
    12:00 +10°C° 0 mm 0 mps 752 mmHg 81%
    13:00 +11°C° 0 mm 0 mps 752 mmHg 80%
    14:00 +11°C° 0 mm 0 mps 752 mmHg 80%
    15:00 +12°C° 0 mm 1 mps 752 mmHg 82%
    16:00 +11°C° 0 mm 1 mps 752 mmHg 84%
    17:00 +11°C° 0 mm 1 mps 752 mmHg 86%
    18:00 +11°C° 0 mm 1 mps 752 mmHg 87%
    19:00 +10°C° 0 mm 1 mps 752 mmHg 88%
    20:00 +10°C° 0 mm 1 mps 752 mmHg 89%
    21:00 +9°C° 0 mm 2 mps 752 mmHg 91%
    22:00 +8°C° 0 mm 2 mps 752 mmHg 92%
    23:00 +8°C° 0 mm 2 mps 752 mmHg 94%
    Show more